Location: Newark
(63.1158°N, 8.1461°E)
Time: 04:32:05
(UTC+00:00)

Envisat - Pass Details

Date: 18 December 2019
Orbit: 764 x 766 km, 98.1° (Epoch: 28 January)

Event Time Altitude Azimuth Distance (km) Brightness Sun altitude
Rises 06:16:51 0° 18° (NNE) 3,251 6.2 -15.0°
Reaches altitude 10° 06:19:13 10° 23° (NNE) 2,320 5.5 -14.7°
Maximum altitude 06:24:16 56° 102° (ESE) 915 3.8 -14.2°
Drops below altitude 10° 06:29:15 10° 180° (S) 2,305 5.8 -13.7°
Sets 06:31:36 0° 185° (S) 3,227 6.5 -13.5°
